METEOR 2-5 DEB, 38534

Orbit data source: Space-Track

METEOR 2-5 DEB, 38534 is space debris in LEO originally from a launch on Wed, 31 Oct 1979 UTC launched from the Plesetsk Missile And Space Complex (PKMTR). Debris objects in space refer to the collection of defunct objects orbiting the Earth. Examples of debris include non-operational satellites, rocket bodies, and fragments generated from explosions, collisions, or faulty payload assembly.

Loading next visibility...
Identifier
38534, 1979-095CB
Orbit
LEO
Country
Flag of CISCIS
Related business
Manufacturer
Unknown
Mission
Spacecraft
Bus & Motor
Unknown
Mass
Unknown
Launch date (UTC)
1979-10-31 (47 years ago)
Launch vehicle
Unknown
Launch site
Plesetsk Missile And Space Complex (PKMTR)
Object type
Payload
Rocket body
Debris
Shape & HBR
Unknown shape, 0.1 m
Radar Cross Section
Small (<0.1 m²)

Expand to show TLE details & history
Last TLE update: 1 week ago

TLE from 1 week ago
0 METEOR 2-5 DEB
1 38534U 79095CB  26167.13115437  .00004133  00000-0  12570-2 0  9998
2 38534  81.2158 124.2629 0014792 331.8321  28.2066 14.41904638616704
Epoch: 2026-06-16T03:08Z
TLE epoch observation values (Epoch: 2026-06-16T03:08:51.737Z)
Latitude
0.00002°
Longitude
172.63974°
Altitude
745.861 km
Speed
7.487 km/s
True Right ascension
08h 17m 03s
True Declination
0° 00' 00"
Sunlit
Object was in daylight at epoch
Visualization orbit readout
Latitude
Unknown
Longitude
Unknown
Altitude
Unknown
Speed
Unknown
Apparent Right ascension
Unknown
Apparent Declination
Unknown
Sunlit
N/A
Visualization observer readout
Local Sidereal Time
08:39:19
Azimuth
Unknown
Elevation
Unknown
Doppler factor
Unknown
Orbital elements
Apogee altitude
759.888 km
Perigee altitude
738.802 km
Semi-major axis
7,127.482 km
Eccentricity
0.00148
Inclination
81.2158°
RAAN
124.2629°
Arg. of periapsis
331.8321°
True anomaly
28.28685°
Mean anomaly
28.2066°
Eccentric anomaly
28.24671°
Mean motion
3.60694 °/min
Orbital period
99.81 mins
BSTAR
0.001257
Loading maneuver chart data...
Computing Atmospheric mass density...

Documentation

Showing up to 5 results
|